EDT,Max TemperatureF,Mean TemperatureF,Min TemperatureF,Max Dew PointF,MeanDew PointF,Min DewpointF,Max Humidity, Mean Humidity, Min Humidity, Max Sea Level PressureIn, Mean Sea Level PressureIn, Min Sea Level PressureIn, Max VisibilityMiles, Mean VisibilityMiles, Min VisibilityMiles, Max Wind SpeedMPH, Mean Wind SpeedMPH, Max Gust SpeedMPH,PrecipitationIn, CloudCover, Events, WindDirDegrees
2014-4-1,60,44,30,35,30,27,89,60,35,30.17,30.10,30.01,10,10,10,9,2,,0.00,0,,132
2014-4-2,55,46,37,41,37,33,96,76,57,30.17,30.11,30.07,10,10,8,6,0,,0.00,2,,235
2014-4-3,66,52,39,40,28,16,97,47,15,30.16,30.10,30.01,10,9,5,7,2,,0.04,1,Rain,48
2014-4-4,46,42,37,31,12,-21,67,39,7,30.11,29.98,29.78,10,4,2,14,6,21,0.12,8,Rain,101
2014-4-5,53,46,39,28,6,-17,49,25,9,30.11,29.88,29.76,10,10,3,23,7,34,0.00,4,Rain,302
2014-4-6,60,46,33,29,20,12,64,40,16,30.24,30.19,30.12,10,10,10,10,5,,0.00,0,,294
2014-4-7,51,44,37,45,36,16,100,78,26,30.24,30.03,29.75,10,5,1,14,5,21,0.30,5,Rain,96
2014-4-8,64,54,44,54,44,32,100,85,42,29.69,29.53,29.42,10,5,1,18,5,31,0.11,6,Rain,350
2014-4-9,60,48,37,34,28,17,86,46,25,30.07,29.79,29.66,10,10,10,17,6,29,0.00,0,,319
2014-4-10,64,47,30,33,26,14,69,40,26,30.24,30.12,30.05,10,10,10,13,4,24,0.00,0,,218
2014-4-11,75,60,48,52,41,30,87,52,32,30.05,30.01,29.95,10,10,10,14,4,22,0.00,2,Rain,255
2014-4-12,73,57,42,52,40,28,100,63,22,30.25,30.16,30.03,10,8,2,10,2,,0.00,1,,258
2014-4-13,82,64,46,54,45,30,72,55,31,30.22,30.11,29.98,10,10,10,12,3,22,0.00,3,,229
2014-4-14,78,70,62,56,54,50,80,62,40,30.03,29.94,29.86,10,10,10,16,8,29,0.00,1,,213
2014-4-15,66,50,33,63,50,32,96,89,73,29.96,29.72,29.52,10,6,1,21,10,31,0.83,8,Rain-Snow,255
2014-4-16,46,38,30,32,18,13,93,49,27,30.61,30.30,29.94,10,10,2,17,9,34,0.02,2,Rain-Snow,342
2014-4-17,48,39,32,31,24,15,82,56,43,30.76,30.68,30.62,10,10,10,14,5,20,0.00,1,,112
2014-4-18,50,39,30,32,28,26,89,66,44,30.64,30.49,30.30,10,10,10,8,3,,0.00,1,,99
2014-4-19,66,50,37,32,25,18,79,40,16,30.38,30.29,30.25,10,10,10,15,3,25,0.00,0,,12
2014-4-20,57,48,39,28,26,24,63,42,34,30.52,30.45,30.37,10,10,10,13,5,20,0.00,0,,104
2014-4-21,69,50,33,41,29,15,85,51,14,30.34,30.12,29.91,10,10,10,14,2,23,0.00,0,,168
2014-4-22,73,60,46,53,46,41,89,68,35,29.88,29.67,29.53,10,10,9,13,3,20,0.00,2,Rain,242
2014-4-23,59,51,43,48,36,29,77,57,41,29.88,29.66,29.52,10,10,10,18,9,38,0.00,6,,323
2014-4-24,61,50,41,29,17,12,58,29,16,30.05,29.94,29.87,10,10,10,21,12,32,0.00,0,,323
2014-4-25,62,48,36,32,24,17,59,39,22,30.07,29.97,29.80,10,10,10,15,4,22,0.01,2,Rain,152
2014-4-26,64,54,44,41,29,23,57,49,25,29.92,29.78,29.73,10,7,2,9,2,18,0.57,7,Rain,28
2014-4-27,55,50,45,34,33,32,54,48,45,30.16,30.02,29.92,10,10,10,14,7,25,0.00,3,,329
2014-4-28,64,51,39,37,33,29,86,46,28,30.16,30.09,30.03,10,10,10,8,3,,0.00,0,,77
2014-4-29,52,48,42,40,37,34,82,73,54,30.45,30.35,30.16,10,10,6,16,11,28,0.05,7,Rain,102
2014-4-30,52,42,39,47,43,37,100,95,82,30.42,30.27,30.00,10,3,1,21,13,25,3.22,8,Rain,78